Simultaneous Nadir Overpasses (SNOs) Predictions

Prediction of SNOs between NOAA-15 and METOP-C Satellite Orbit:

Table of predicted SNOs for the next 14.0 days since TLE Epoch: 9/28/2024
Index Date (NOAA-15) Time (NOAA-15) Lat,Lon (NOAA-15) SZA (NOAA-15 ) Date (METOP-C) Time (METOP-C) Lat,Lon (METOP-C) SZA (METOP-C ) Distance(km) Time Diff (sec)
1 09/28/2024 09:15:01 -81.04,-100.80 94.59 09/28/2024 09:13:48 -81.03,-100.79 94.63 0.98 73
2 09/28/2024 10:05:27 81.03, 66.72 85.43 09/28/2024 10:04:29 81.03, 66.62 85.40 1.80 58
3 09/28/2024 10:56:00 -81.03,-125.92 94.56 09/28/2024 10:55:09 -81.04,-125.91 94.57 0.76 51
4 09/28/2024 11:46:26 81.02, 41.59 85.47 09/28/2024 11:45:50 81.04, 41.50 85.46 2.33 36
5 09/28/2024 12:37:00 -81.04,-151.42 94.55 09/28/2024 12:36:31 -81.03,-151.39 94.57 1.39 29
6 09/28/2024 13:27:26 81.04, 16.09 85.48 09/28/2024 13:27:12 81.03, 16.01 85.46 1.47 14
7 09/28/2024 14:17:59 -81.04,-176.54 94.51 09/28/2024 14:17:52 -81.04,-176.51 94.51 0.68 7
8 09/28/2024 15:08:25 81.03, -9.04 85.51 09/28/2024 15:08:33 81.04, -9.11 85.52 1.77 8
9 09/28/2024 15:58:59 -81.05, 157.96 94.50 09/28/2024 15:59:14 -81.03, 158.00 94.50 1.83 15
10 09/28/2024 16:49:25 81.04, -34.54 85.53 09/28/2024 16:49:55 81.04, -34.60 85.53 1.31 30
11 09/28/2024 17:39:58 -81.04, 132.83 94.46 09/28/2024 17:40:35 -81.04, 132.88 94.44 0.88 37
12 09/28/2024 18:30:24 81.04, -59.67 85.56 09/28/2024 18:31:16 81.05, -59.72 85.59 1.21 52
13 09/28/2024 19:20:57 -81.04, 107.70 94.43 09/28/2024 19:21:56 -81.05, 107.77 94.39 1.92 59



Historial Predications of SNOs between NOAA-15 and METOP-C
